一网星座-0343星 (ONEWEB-0343 )

导读

ONEWEB-0343是英国一网(OneWeb)低轨宽带星座的卫星,于2021年9月14日发射入轨。OneWeb是全球第二大低轨卫星互联网星座,第一代星座最终完成618颗卫星组网,已基本具备全球覆盖能力。该卫星采用Ku波段提供用户通信服务,为飞机、船舶及偏远地区提供宽带接入,推动全球卫星互联网普及,助力填补数字鸿沟,是商业航天星座建设的重要组成部分。

Basic Information
目录编号:
49209
目录名称:
ONEWEB-0343
国际标识:
2021-083Z
轨道中心:
EARTH
卫星名称:
一网星座-0343星
卫星全名:
一网星座-0343星 (ONEWEB-0343 )
卫星状态:
在轨 (已飞行1734 天)
发射日期:
2021-09-14 UTC
国别 :
英国 (GB)
星等 :
--
Orbit Information
数据来源 国际轨道数据 AOE轨道数据
星历时间 2026-06-14T12:32:55+0800
9小时前
查看轨道信息
2026-06-12T14:00:00+0800
2天前
查看轨道信息
半长轴 7567.88km 7567.873km
偏心率 0.0001576 0.0001585
轨道倾角 87.916° 87.919°
近地点辐角 103.550° 89.684°
升交点赤经 336.054° 336.436°
平近点角 256.580° 68.279°
近地点 1188.55km 1188.536km
远地点 1190.936km 1190.936km
周期 109.200分钟 109.199分钟
每日圈数 13.186862 13.186881
Detailed Information
平衡模式:
三轴稳定
覆盖范围:
全球
运营商:
一网卫星公司
运营商所在国:
英国
制造商(研发单位):
一网卫星公司
制造商所在国:
英国
使用方式:
暂无
Satellite Introduction
OneWeb卫星网络由648颗重约125公斤的微型卫星组成,运行在1200公里的轨道上。 每颗卫星都能够提供至少每秒8千兆位的吞吐量,以使用其高吞吐量的Ku频段有效载荷为家庭和移动平台提供互联网接入。该卫星仍在工作。
2D Orbit Map
3D Orbit Map
Orbit Altitude Analysis Chart
Orbit Inclination Analysis Chart
Orbit Comprehensive Analysis Chart
View Comprehensive Chart